Regional Weather Roundup
Issued by NWS Sterling, VA

Home | Current Version | Previous Version | Text Only | Print | Product List | Glossary On
Versions: 1 2 3 4 5 6 7 8 9 10 11 12 13 14 15 16 17 18 19 20 21 22 23 24 25 26 27 28 29
000
ASUS41 KLWX 260210
RWRLWX

REGIONAL WEATHER ROUNDUP
NATIONAL WEATHER SERVICE BALTIMORE MD/WASHINGTON DC
1000 PM EDT SAT OCT 25 2014

Note: "FAIR" indicates few or no clouds below 12,000 feet
with no significant weather and/or obstructions to visibility.
 TC=TEMPERATURE CELSIUS

 * =Non NWS site. Station does not report precipitation (e.g. rain,
    snow, etc.), thunder, or fog.

DCZ001-MDZ009-015-VAZ040>042-051-053>054-260300-
WASHINGTON METRO

CITY           SKY/WX    TMP DP  RH WIND       PRES   REMARKS
WASHINGTON NAT CLEAR     62  43  49 SW3       29.75R
DULLES         CLEAR     56  42  59 CALM      29.74S
ANDREWS AFB    CLEAR     59  43  55 W9        29.73S
FT BELVOIR     CLEAR     51  47  84 NW1       29.75R
QUANTICO       CLEAR     60  44  55 NW3       29.75S
COLLEGE PARK*  CLEAR     54  45  71 CALM      29.73S
LEESBURG*      CLEAR     61  46  59 W8        29.75S
MANASSAS*      CLEAR     52  46  82 CALM      29.75R
GAITHERSBURG*  CLEAR     54  41  62 CALM      29.77S

$$

MDZ006>007-011-014-260300-
BALTIMORE METRO

CITY           SKY/WX    TMP DP  RH WIND       PRES   REMARKS
BWI AIRPORT    CLEAR     57  42  57 W7        29.72R
MD SCIENCE CTR   N/A     62  41  46 MISG      29.72S
MARTIN STATE   CLEAR     61  45  55 CALM      29.72F
ANNAPOLIS      CLEAR     59  41  51 VRB3      29.72S
FORT MEADE*    CLEAR     48  45  87 SW3       29.75R

$$

MDZ012-015-019>023-260300-
MARYLAND EASTERN SHORE

CITY           SKY/WX    TMP DP  RH WIND       PRES   REMARKS
OCEAN CITY     CLEAR     59  45  59 SW10      29.75F
SALISBURY      CLEAR     58  48  69 SW10      29.74F
BAY BRIDGE AP*   N/A     61  43  51 SW6       29.72F
CAMBRIDGE*     CLEAR     61  45  55 CALM      29.73F

$$

MDZ017>025-260300-
SOUTHERN MARYLAND

CITY           SKY/WX    TMP DP  RH WIND       PRES   REMARKS
PATUXENT RIVER CLEAR     60  42  51 SW9       29.73F
ST INIGOES     CLEAR     61  44  53 SW10      29.74F
LEONARDTOWN*   CLEAR     61  43  51 SW9       29.75F

$$

MDZ003>005-260300-
NORTH CENTRAL MARYLAND

CITY           SKY/WX    TMP DP  RH WIND       PRES   REMARKS
FREDERICK*     CLEAR     61  43  51 S8        29.74S
HAGERSTOWN APT CLEAR     63  47  55 W8        29.70F
WESTMINSTER*   CLEAR     59  46  63 SW6       29.71S

$$

MDZ501>502-260300-
WESTERN MARYLAND

CITY           SKY/WX    TMP DP  RH WIND       PRES   REMARKS
OAKLAND*       MOCLDY    52 N/A N/A W14G28    29.81S
CUMBERLAND*    CLEAR     64  50  59 W15G23    29.76F

$$

VAZ025>031-260300-
SHENANDOAH VALLEY

CITY           SKY/WX    TMP DP  RH WIND       PRES   REMARKS
WINCHESTER*    CLEAR     64  41  42 W10G16    29.74F
FRONT ROYAL*   FAIR      64  45  48 W7        29.75R
LURAY*         FAIR      66  46  48 SW8       29.76S
NEW MARKET*    FAIR      52  46  78 CALM      29.78R
STAUNTON*      CLEAR     60  44  54 S6        29.81S
WAYNESBORO*    FAIR      62  46  55 SW9G22    29.80F

$$

WVZ021-048>050-054>055-260300-
EASTERN WEST VIRGINIA PANHANDLE

CITY           SKY/WX    TMP DP  RH WIND       PRES   REMARKS
MARTINSBURG    CLEAR     65  46  50 W17       29.73F
PETERSBURG*    CLEAR     64  46  52 W13       29.79R

$$

VAZ036>039-050-260300-
CENTRAL FOOTHILLS

CITY           SKY/WX    TMP DP  RH WIND       PRES   REMARKS
CHARLOTTESVILL CLEAR     65  45  48 SW6       29.77S
CULPEPER*      CLEAR     57  45  62 CALM      29.76R
ORANGE*        CLEAR     55  45  67 CALM      29.77S
GORDONSVILLE*  FAIR      51  45  79 SW3       29.76S
WARRENTON*     FAIR      58  49  71 SW3       29.75R

$$

VAZ055>057-260300-
NORTH AND CENTRAL PIEDMONT

CITY           SKY/WX    TMP DP  RH WIND       PRES   REMARKS
FREDERICKSBRG* CLEAR     60  45  57 SW5       29.74S
STAFFORD*      CLEAR     57  42  57 CALM      29.79S

$$

NCZ024-NYZ072-PAZ021-071-VAZ022-071-260300-
OTHER REGIONAL OBSERVATIONS

CITY           SKY/WX    TMP DP  RH WIND       PRES   REMARKS
NEW YORK CITY  CLEAR     63  43  48 SW13G26   29.62F
PHILADELPHIA   PTCLDY    60  45  57 SW12      29.68S
PITTSBURGH     CLEAR     60  48  64 W15       29.77R
ROANOKE        CLEAR     64  47  53 W13       29.88F
RICHMOND       CLEAR     59  44  57 SW8       29.78F
RALEIGH        PTCLDY    52  45  77 SW6       29.90S

$$

ANZ530>537-260300-
MARINE OBSERVATIONS

STATION/POSITION TIME  TEMP    WIND        PRES
                       AIR SEA DIR/SP/G
                 (UTC) (F)     (DEG/KT/KT) (MB)
THOMAS PT LIGHT  0200   62 62  220/ 12/ 13 1007.5F
BALT KEY BRIDGE  0200   61     240/  5/  6 1005.9R
COVE POINT       0200   62     230/ 13/ 16 1006.6F
LEWISETTA        0200   61 60  230/ 11/ 15 1007.0F
SOLOMONS ISLAND  0200      63                N/A
PINEY POINT      0200          230/ 13/ 14   N/A

$$




USA.gov is the U.S. government's official web portal to all federal, state and local government web resources and services.